RH
20 22 25 26 28 32 60 100 100 100 100 96 100 76 72 100 100 100 100 96 84 91 90 70 65 60 50 43 42 44 44 44 46 43 41 39 36 32 28 28 25 25 24 22 20 19 18 17 16
15 14 17 22 28 35 48 54 100 91 99 98 93 98 82 88 100 100 99 100 100 100 99 94 83 74 67 56 54 47 53 43 52 52 47 44 40 36 32 31 31 28 27 25 24 24 21 19 18
19 16 16 15 16 24 32 40 59 100 84 97 98 87 97 84 100 100 100 100 100 100 100 100 99 98 92 83 79 59 60 56 53 53 56 50 47 44 39 39 34 32 29 31 28 28 26 26 26
20 17 19 17 15 15 15 18 28 38 66 76 92 91 81 86 90 100 100 100 100 100 100 99 100 100 100 100 96 79 63 67 65 70 58 56 51 49 48 48 42 38 35 36 33 33 33 30 32
22 20 21 21 16 15 16 16 17 19 25 36 52 73 82 87 97 100 100 100 99 97 100 100 97 100 100 100 100 96 70 77 86 79 68 61 55 53 56 57 44 45 44 42 41 36 37 37 38
28 26 20 23 19 17 17 17 18 17 16 17 21 29 55 92 97 100 100 100 97 100 88 100 87 88 99 100 100 100 87 88 83 84 78 69 62 64 70 58 50 51 57 57 56 52 44 42 45
35 28 25 24 21 21 17 16 15 14 14 12 14 16 21 30 69 100 100 100 100 100 100 99 81 78 83 100 100 100 98 98 93 78 85 79 70 69 84 66 55 55 62 64 65 59 54 47 45
37 35 30 34 32 32 19 19 15 13 13 15 12 12 15 19 27 64 100 100 100 98 100 100 91 68 67 100 100 100 100 100 100 97 92 87 86 90 90 82 73 54 63 68 67 66 60 53 56
40 44 38 42 44 38 27 22 18 14 9 8 9 8 9 12 17 39 44 80 100 100 87 99 100 80 65 68 100 100 100 100 100 100 100 99 98 100 100 91 87 66 62 73 67 70 74 69 61
44 42 46 44 51 43 36 21 21 17 15 6 5 4 5 9 15 32 30 38 67 100 98 85 100 100 88 64 75 100 100 100 89 100 100 100 100 100 97 100 97 75 60 58 69 77 81 80 68
70 48 52 47 58 49 35 19 20 19 10 4 3 3 4 8 11 61 39 32 30 62 100 100 78 100 100 93 72 96 100 100 99 100 100 100 100 99 100 100 100 100 86 63 70 75 82 86 86
55 54 60 50 63 51 34 17 21 17 5 3 4 5 7 25 97 100 67 68 89 73 56 100 100 89 100 100 96 96 100 91 95 100 100 100 100 100 91 100 100 100 94 72 65 70 81 90 88
57 61 66 60 68 56 40 23 21 18 7 5 6 61 99 100 100 100 90 74 94 100 100 97 100 100 100 100 100 100 100 100 100 100 100 100 100 100 94 100 100 100 67 66 73 91 100 99 95
65 66 72 83 70 63 61 30 20 18 54 76 14 98 100 100 100 100 86 100 95 84 96 100 90 100 100 100 100 100 100 100 100 100 98 100 100 100 100 100 100 99 76 78 100 100 100 100 100
60 65 83 90 78 68 69 40 24 18 27 100 32 57 86 100 98 100 100 82 86 99 100 100 100 70 93 100 100 100 100 100 100 100 100 93 100 100 100 100 100 100 100 93 100 100 100 100 100
71 74 90 73 93 72 84 49 45 24 18 92 95 77 92 98 100 100 100 100 99 100 100 100 100 72 54 100 100 100 100 100 100 100 100 100 100 100 100 100 100 100 79 86 80 97 100 91 94
68 84 83 84 88 72 93 51 49 41 22 22 75 83 48 77 100 100 97 100 91 83 100 100 100 100 80 100 100 100 100 100 100 100 100 100 100 100 100 100 100 100 82 77 69 65 92 87 93
73 72 69 72 72 72 100 77 68 58 35 22 25 31 98 70 80 100 100 100 99 100 100 100 100 100 100 100 100 100 100 100 100 100 100 100 100 100 91 100 95 93 75 67 69 65 83 100 99
76 72 70 82 72 66 62 98 90 66 45 34 30 27 26 100 97 90 82 100 100 100 100 100 100 100 100 100 100 100 100 100 100 100 100 100 100 100 92 99 95 93 89 73 76 73 96 100 100
42 60 72 78 88 73 62 84 100 64 64 46 36 28 28 24 48 100 100 100 100 91 88 100 100 100 100 98 100 100 100 100 99 100 100 100 100 100 100 98 88 95 91 85 100 100 93 85 100
34 41 54 74 89 95 75 84 100 90 75 64 58 31 33 32 21 49 88 100 96 100 90 89 84 88 96 97 86 100 100 100 100 100 100 96 88 87 80 77 88 96 100 100 100 100 83 85 85
31 32 42 90 98 95 88 90 94 98 91 90 70 44 40 32 34 22 94 100 100 100 88 94 100 96 95 98 96 100 100 100 99 98 93 100 100 100 96 93 100 100 100 100 100 83 92 100 100
31 32 32 73 100 100 100 88 100 100 100 95 80 60 43 38 37 33 23 82 100 100 100 100 100 100 83 73 100 100 100 100 100 100 100 100 100 100 100 100 94 95 100 100 99 100 100 100 100
34 33 35 37 100 100 100 95 100 100 100 100 99 88 70 48 41 38 34 26 73 100 100 100 100 100 100 100 100 100 100 100 100 100 100 100 100 100 100 100 100 100 100 100 100 100 100 100 100
36 33 32 37 51 100 100 100 100 100 100 100 100 95 90 69 54 43 43 37 33 59 99 100 100 100 100 100 100 100 100 100 100 100 88 100 100 100 100 100 100 100 100 100 100 100 100 100 100
40 37 34 37 47 77 100 100 100 100 100 100 100 100 99 95 73 51 46 39 36 36 30 54 99 100 100 100 100 100 100 87 62 41 51 57 71 95 100 100 100 100 100 100 100 100 100 100 100
43 43 45 41 39 48 93 100 100 100 100 100 100 100 100 100 95 82 66 56 40 40 36 32 26 31 49 67 78 74 58 40 31 42 46 38 38 64 71 90 99 98 92 100 100 100 100 100 100
56 48 48 44 46 50 54 80 100 100 100 100 100 100 100 100 100 100 89 65 69 52 47 44 38 35 34 31 29 30 35 38 42 49 54 78 70 69 70 42 46 68 99 74 93 100 99 87 97
44 56 56 51 52 51 56 64 98 100 100 100 100 100 100 100 100 100 100 90 81 86 65 58 71 66 59 52 47 42 38 35 33 41 53 60 100 100 79 80 88 100 100 84 96 84 83 100 100
21 34 51 59 67 65 63 59 86 100 100 100 100 100 100 100 100 100 100 100 92 100 97 71 70 80 83 71 70 64 55 52 46 39 32 35 89 100 83 100 100 100 100 97 91 98 76 97 100
Wind_Speed
18 23 31 42 45 49 54 56 57 56 56 55 53 53 55 52 53 53 55 50 47 43 42 41 40 39 36 31 28 26 21 20 22 21 21 20 20 21 21 23 22 23 23 22 23 25 26 28 29
8 14 20 24 36 44 55 59 58 61 60 57 56 56 53 53 57 56 55 53 53 47 45 45 46 44 42 36 33 29 24 23 22 24 25 23 23 23 23 25 27 26 25 24 25 26 25 27 28
6 8 9 17 26 38 45 57 60 62 64 61 60 58 59 56 57 63 61 55 54 54 50 46 47 47 47 43 38 34 30 27 26 28 27 27 25 25 26 28 29 30 28 27 27 27 25 27 28
9 9 12 13 19 28 28 40 55 64 68 69 65 64 61 61 63 64 66 64 57 55 54 48 47 48 48 46 42 38 35 31 29 30 32 31 28 28 29 31 32 32 32 30 28 27 28 27 28
12 11 12 11 12 20 23 32 45 54 61 67 71 67 66 66 65 67 72 66 66 63 58 56 53 49 50 50 46 42 37 34 31 32 35 35 33 29 30 34 35 35 34 32 30 30 30 28 28
17 18 18 18 19 19 23 23 36 32 47 60 62 70 74 74 73 71 71 74 71 66 64 60 57 54 48 50 49 46 42 37 35 35 36 36 34 32 33 35 34 36 36 34 33 32 30 30 29
22 21 23 24 27 31 22 28 29 46 47 53 62 72 77 82 82 79 79 76 76 72 67 66 60 56 52 47 50 50 46 42 38 39 37 36 35 37 37 35 35 36 38 37 34 33 31 31 30
28 27 29 31 34 38 35 36 31 44 56 59 63 64 76 86 88 88 86 83 79 79 73 70 68 64 59 55 49 50 49 48 44 43 41 38 37 38 38 35 37 38 39 40 38 35 33 31 31
34 31 31 34 36 41 40 43 41 45 59 71 68 64 69 79 90 89 90 87 85 80 78 75 72 69 66 61 55 53 53 50 47 46 43 41 39 38 37 37 39 39 40 38 39 37 35 34 34
38 37 36 37 39 42 44 48 49 57 69 58 52 54 56 66 82 82 89 88 90 85 81 80 78 74 69 68 62 56 54 54 52 47 46 42 40 37 39 40 40 40 39 41 39 39 36 36 36
39 40 38 39 41 42 48 50 54 61 68 40 41 49 56 57 65 60 79 85 91 85 86 83 82 79 75 71 67 63 60 56 53 50 48 46 45 44 43 43 43 38 39 39 40 41 41 40 39
40 39 40 41 40 44 50 49 52 62 38 37 28 34 44 36 38 47 51 69 67 71 82 86 84 85 78 75 71 68 66 62 58 54 51 48 47 47 46 43 44 40 39 41 40 40 42 43 41
39 41 42 44 40 44 50 50 52 55 26 11 25 52 48 37 54 51 49 61 73 67 68 86 85 84 82 76 73 68 65 62 61 60 57 54 49 51 46 43 43 42 42 41 42 44 44 45 42
46 42 42 45 41 42 48 49 48 44 27 20 45 57 63 59 57 42 55 52 67 74 72 74 86 87 79 75 72 72 66 66 63 64 62 55 54 54 54 45 48 51 47 45 47 44 42 44 45
49 45 40 45 42 42 47 49 49 43 28 31 42 64 72 52 49 59 50 46 50 62 70 70 79 86 91 77 75 71 71 67 69 66 64 61 52 51 47 49 50 54 51 51 48 46 44 43 47
51 50 44 43 44 41 45 46 46 44 25 21 52 66 68 80 64 61 45 48 43 49 44 57 70 75 81 84 76 72 73 75 72 67 58 58 52 52 52 51 53 53 55 52 52 49 46 47 49
59 55 50 45 45 41 45 46 45 46 44 16 37 63 59 85 73 72 52 58 56 39 41 43 50 59 71 74 74 72 68 69 71 72 67 66 62 59 53 53 53 53 55 54 55 54 52 53 52
64 62 59 52 48 44 42 45 42 42 45 37 18 14 72 70 85 89 69 63 59 59 48 48 52 55 60 63 65 68 68 65 67 67 66 71 71 67 66 58 61 61 61 61 58 58 56 53 52
75 69 64 58 55 51 43 45 45 41 47 44 33 16 13 83 88 95 96 90 84 78 65 70 58 53 55 67 68 69 70 69 68 68 66 64 63 61 65 65 66 65 63 61 59 59 54 52 53
79 77 72 69 60 55 52 45 48 44 44 47 43 31 16 15 65 86 85 92 96 96 88 73 62 51 53 64 68 72 75 75 72 67 63 59 62 64 63 66 67 67 61 60 56 56 58 57 55
75 74 76 70 63 55 53 52 47 46 46 46 48 42 29 18 21 51 70 72 83 77 82 82 79 80 66 64 72 74 74 71 68 70 72 74 74 73 72 72 69 66 63 60 55 64 63 62 62
75 73 72 72 67 59 56 54 50 50 48 49 48 48 38 28 18 22 50 60 67 70 77 75 67 73 71 65 65 65 67 66 68 70 70 70 71 73 73 73 67 64 66 67 67 69 66 65 65
69 69 70 71 69 62 61 55 59 53 52 50 50 49 48 35 26 21 28 61 78 77 78 74 77 80 83 80 71 72 72 74 72 72 68 67 69 70 72 73 77 75 72 71 71 70 70 71 72
66 66 67 70 71 67 68 61 64 58 55 53 53 52 51 46 37 28 27 32 71 86 85 83 81 85 82 80 74 79 77 81 75 73 73 71 71 73 71 75 75 73 73 74 73 72 74 79 77
62 65 66 65 70 70 70 66 67 63 59 57 55 55 54 51 48 38 31 32 38 67 94 100 97 94 84 80 80 73 73 80 87 90 84 79 79 77 74 74 76 77 77 76 76 77 79 78 75
62 61 66 67 66 75 75 70 72 71 65 62 59 57 56 53 54 49 39 36 38 43 45 76 98 97 100 98 96 95 92 86 89 87 82 81 83 83 86 88 87 87 84 83 81 76 76 78 83
63 59 66 65 66 67 73 74 73 73 70 69 64 61 58 56 56 54 49 43 40 41 44 46 46 57 76 87 83 83 88 87 86 86 83 84 84 81 83 83 82 80 81 81 79 79 81 80 80
68 69 66 63 62 65 66 74 78 76 74 73 70 68 63 60 57 56 53 50 46 43 45 47 48 48 49 49 50 54 59 75 85 83 82 74 77 78 80 85 83 76 74 73 70 74 77 76 79
77 74 74 70 61 58 64 67 75 82 81 79 77 74 69 65 64 62 57 55 54 51 48 48 49 49 51 51 50 51 52 54 54 57 67 77 84 82 84 77 71 77 76 76 77 74 77 76 78
82 79 79 73 71 70 64 64 72 78 85 87 82 77 76 74 70 65 62 59 60 60 56 52 52 53 57 55 56 56 54 54 55 57 54 53 71 81 86 85 85 82 85 83 79 78 75 80 85
Wind_Direction
218 229 229 224 221 218 222 227 234 231 231 231 231 231 229 235 229 236 236 234 232 236 239 240 240 241 241 245 246 247 261 271 274 275 281 289 293 296 301 305 300 300 300 303 302 304 302 297 292
222 227 229 233 231 226 226 229 231 233 231 235 234 229 230 231 235 234 234 235 238 238 241 241 243 243 243 245 248 247 253 265 274 280 277 281 287 292 294 302 303 303 300 303 305 308 308 303 299
223 218 228 233 232 235 238 236 236 238 233 232 233 232 230 232 234 236 236 234 238 240 243 244 242 242 244 244 244 245 250 261 270 278 285 276 282 287 292 301 302 303 301 302 304 310 312 312 312
235 226 229 236 249 235 242 249 246 244 242 236 233 235 232 233 235 237 238 235 235 240 240 242 243 243 243 244 243 245 250 258 266 271 279 285 278 284 292 302 305 302 302 303 303 308 309 308 311
267 264 267 293 265 253 266 258 243 248 248 249 241 238 236 236 230 236 239 236 237 237 237 239 242 244 247 246 246 244 251 258 262 268 279 281 279 279 290 299 303 303 302 302 302 303 309 311 314
273 274 287 299 299 283 296 275 237 241 252 248 247 243 240 236 230 228 237 238 236 237 237 236 239 241 245 250 250 246 247 252 261 268 273 275 276 274 285 297 297 298 299 299 298 300 306 309 316
283 281 289 303 313 300 309 314 257 242 264 252 243 241 238 236 235 228 231 235 235 234 236 238 239 237 239 245 251 252 249 254 259 267 268 269 272 275 286 293 296 294 294 296 296 298 302 308 315
282 284 294 302 308 304 310 317 296 268 268 276 256 241 236 235 233 231 231 233 234 234 235 238 240 239 238 242 246 251 253 252 257 260 260 261 268 278 287 292 298 292 291 293 293 296 299 308 313
274 284 289 298 301 304 306 312 310 295 256 265 268 259 245 239 235 232 234 233 233 235 236 237 239 240 239 239 243 247 250 253 256 258 260 263 267 278 282 287 292 297 291 295 292 293 298 302 308
274 279 287 296 294 299 301 313 316 316 302 279 261 248 234 233 231 234 234 234 234 232 236 238 238 240 239 239 240 245 248 250 252 257 261 261 266 271 277 284 287 287 291 292 293 291 294 302 304
273 276 284 294 293 297 300 313 321 321 307 282 246 228 217 208 222 227 236 235 234 236 234 238 240 239 241 239 239 241 246 248 252 258 259 260 264 268 275 279 281 281 287 292 293 292 294 298 299
275 277 281 292 290 295 300 314 322 325 294 270 237 213 197 186 201 234 241 233 235 238 237 237 240 241 240 242 241 241 243 246 250 254 254 261 264 268 274 277 277 280 286 288 293 296 293 295 296
273 279 280 288 288 292 299 312 321 337 342 218 191 148 142 163 192 222 238 243 236 236 238 237 238 238 239 240 243 244 246 247 250 252 255 261 262 266 272 273 271 281 286 286 289 293 293 292 291
273 273 277 281 286 291 296 308 319 337 12 184 182 153 158 171 190 211 239 233 240 239 236 238 237 236 238 239 242 244 246 247 249 252 254 259 262 267 270 266 269 279 281 280 287 288 287 287 288
270 271 272 277 282 289 293 303 312 326 12 198 191 169 171 175 188 207 224 239 231 235 231 235 238 238 239 238 242 245 244 245 249 253 257 258 260 261 262 265 268 273 275 279 283 285 283 282 285
267 271 270 270 276 286 287 298 306 312 334 216 176 171 173 179 183 197 220 228 208 229 228 236 238 239 239 236 242 246 247 248 252 253 255 257 256 260 261 262 264 266 271 274 277 282 280 280 280
267 266 265 265 269 277 282 291 297 303 311 331 203 203 197 186 195 196 188 207 214 216 232 226 234 239 238 238 242 244 246 248 251 252 253 255 257 256 260 261 263 266 269 273 275 278 279 282 278
263 264 265 264 263 269 271 283 284 293 300 305 316 225 218 204 200 196 204 215 219 221 223 229 236 235 234 232 233 237 242 243 245 249 249 254 257 256 262 258 266 267 272 274 275 277 278 277 277
262 261 262 264 263 266 267 271 275 281 290 296 303 297 255 215 216 210 214 225 231 235 227 235 242 237 238 238 236 236 237 240 242 246 249 249 255 254 260 262 266 268 271 275 274 277 272 271 273
259 260 261 263 258 264 266 259 267 275 279 287 295 299 286 262 220 221 231 229 231 235 232 228 228 234 239 236 235 240 242 243 242 245 247 247 250 254 258 263 265 268 271 273 269 269 267 270 271
259 258 257 257 257 256 258 256 257 264 270 278 283 295 295 283 243 217 219 226 232 233 235 229 235 227 226 232 232 231 235 240 244 248 253 255 259 259 265 267 268 267 270 268 268 266 271 272 275
259 256 253 252 253 251 250 250 254 256 262 268 276 284 285 285 269 234 208 225 233 240 241 232 229 231 230 233 234 236 239 242 246 253 255 258 261 258 260 265 265 264 267 266 262 267 270 276 277
259 255 251 247 247 248 244 245 253 252 256 261 267 273 280 281 278 252 240 218 229 230 231 228 230 235 236 241 235 240 242 245 248 250 252 257 259 259 259 263 265 268 267 267 270 272 275 278 276
259 255 250 245 242 243 246 245 248 248 252 255 260 265 270 277 277 267 248 236 225 223 224 225 230 234 234 236 240 240 243 244 242 246 251 256 255 254 256 262 260 262 264 267 269 269 271 274 275
259 258 254 249 242 239 244 244 242 248 249 252 253 259 263 269 272 271 263 247 231 229 226 227 230 232 234 235 235 238 236 244 247 253 258 254 254 255 254 256 260 261 264 267 267 269 270 272 274
260 257 255 249 243 238 238 244 245 245 247 248 249 252 255 260 266 269 268 261 252 237 232 235 233 232 233 235 240 243 247 250 252 255 254 254 254 255 257 258 260 262 262 264 266 266 269 270 271
258 259 254 250 247 242 238 239 241 246 246 246 246 246 247 254 259 265 269 266 261 256 243 235 228 231 237 236 237 240 245 247 248 251 252 254 254 254 256 255 256 259 261 263 266 266 269 270 275
259 256 255 254 247 243 239 238 239 240 242 241 243 243 244 247 251 256 261 264 259 259 254 246 241 237 239 240 243 245 248 250 248 249 248 248 251 253 255 258 258 257 261 263 267 266 270 273 273
253 251 252 252 252 250 241 240 240 238 238 239 240 242 241 241 244 252 255 260 261 258 259 254 249 249 249 250 251 252 253 257 259 259 254 252 253 259 260 261 260 263 266 271 272 272 269 269 275
254 250 248 249 251 251 247 241 239 240 238 239 239 239 241 243 242 245 250 253 257 257 255 256 252 250 248 249 250 252 254 259 261 263 264 264 259 260 260 261 263 259 261 269 271 273 274 274 278